W5ZYX Weather Reports


Display with metric or nautical units.
time (UTC)temp
F
wind
direction
speed
MPH
gust
MPH
rain 1hr
in
rain 24hr
in
rain mn
in
humidity
%
barometer
mb
20260901040536 82 0 0.0 0.0 0.00 0.00 0.00 74 1015.4
20260901040100 82 0 0.0 0.0 0.00 0.00 0.00 74 1015.4
20260901035538 82 0 0.0 0.0 0.00 0.00 0.00 74 1015.3
20260901035036 82 0 0.0 0.0 0.00 0.00 0.00 74 1015.3
20260901034603 82 0 0.0 0.0 0.00 0.00 0.00 74 1015.4
20260901034037 83 0 0.0 0.0 0.00 0.00 0.00 73 1015.3
20260901033537 83 0 0.0 0.0 0.00 0.00 0.00 72 1015.3
20260901033113 83 0 0.0 0.0 0.00 0.00 0.00 71 1015.2
20260901032538 83 0 0.0 0.0 0.00 0.00 0.00 72 1015.2
20260901032037 83 0 0.0 0.0 0.00 0.00 0.00 71 1015.1
20260901031602 84 0 0.0 0.0 0.00 0.00 0.00 70 1015.1
20260901031037 84 0 0.0 0.0 0.00 0.00 0.00 70 1015.1
20260901030538 84 0 0.0 0.0 0.00 0.00 0.00 71 1015.1
20260901030054 84 0 0.0 0.0 0.00 0.00 0.00 71 1015.0
20260901025536 84 0 0.0 0.0 0.00 0.00 0.00 70 1015.0
20260901025036 85 0 0.0 0.0 0.00 0.00 0.00 70 1014.9
20260901024601 85 0 0.0 0.0 0.00 0.00 0.00 70 1014.7
20260901024037 85 0 0.0 0.0 0.00 0.00 0.00 69 1014.7
20260901023536 85 0 0.0 0.0 0.00 0.00 0.00 69 1014.7
20260901023102 86 0 0.0 0.0 0.00 0.00 0.00 68 1014.6
20260901022536 86 0 0.0 0.0 0.00 0.00 0.00 68 1014.6
20260901022036 86 0 0.0 0.0 0.00 0.00 0.00 67 1014.6
20260901021559 86 0 0.0 0.0 0.00 0.00 0.00 66 1014.5
20260901021037 87 0 0.0 0.0 0.00 0.00 0.00 66 1014.6
20260901020537 87 0 0.0 2.0 0.00 0.00 0.00 66 1014.5
20260901020059 87 0 0.0 3.0 0.00 0.00 0.00 66 1014.5
20260901015536 87 0 1.0 6.0 0.00 0.00 0.00 65 1014.5
20260901015036 88 157 2.0 6.0 0.00 0.00 0.00 65 1014.4
20260901014606 88 157 3.0 6.0 0.00 0.00 0.00 65 1014.3
20260901014036 88 167 3.0 6.0 0.00 0.00 0.00 64 1014.3
20260901013537 88 172 1.0 5.0 0.00 0.00 0.00 64 1014.2
20260901013058 89 172 1.0 6.0 0.00 0.00 0.00 63 1014.2
20260901012537 89 172 2.0 8.0 0.00 0.00 0.00 63 1014.2
20260901012036 89 158 3.0 9.0 0.00 0.00 0.00 63 1014.2
20260901011559 89 144 5.0 11.0 0.00 0.00 0.00 62 1014.2
20260901011036 90 149 4.0 11.0 0.00 0.00 0.00 62 1014.2
20260901010536 90 143 4.0 11.0 0.00 0.00 0.00 61 1014.0
20260901005540 91 201 6.0 12.0 0.00 0.00 0.00 59 1014.0
20260901005036 92 161 4.0 15.0 0.00 0.00 0.00 57 1014.0
20260901004615 92 169 8.0 15.0 0.00 0.00 0.00 56 1014.1
20260901004036 93 138 2.0 4.0 0.00 0.00 0.00 53 1014.0
20260901003538 93 90 2.0 4.0 0.00 0.00 0.00 53 1013.9
20260901003102 93 134 1.0 6.0 0.00 0.00 0.00 52 1013.9
20260901002537 94 109 2.0 8.0 0.00 0.00 0.00 51 1013.9
20260901002037 94 120 3.0 8.0 0.00 0.00 0.00 51 1013.9
20260901001602 94 136 3.0 9.0 0.00 0.00 0.00 51 1013.9
20260901001036 94 113 3.0 9.0 0.00 0.00 0.00 51 1013.9
20260901000536 94 138 4.0 9.0 0.00 0.00 0.00 51 1013.8
20260901000110 95 126 4.0 9.0 0.00 0.00 0.00 51 1013.7
20260831235537 95 148 4.0 11.0 0.00 0.00 0.00 51 1013.7
20260831235036 95 137 4.0 11.0 0.00 0.00 0.00 50 1013.6
20260831234555 95 116 6.0 14.0 0.00 0.00 0.00 50 1013.7
20260831234036 96 124 8.0 14.0 0.00 0.00 0.00 49 1013.7
20260831233535 96 146 9.0 14.0 0.00 0.00 0.00 48 1013.7
20260831233053 97 132 5.0 12.0 0.00 0.00 0.00 46 1013.7
20260831232537 98 143 5.0 12.0 0.00 0.00 0.00 45 1013.6
20260831232036 98 124 4.0 11.0 0.00 0.00 0.00 44 1013.6
20260831231609 98 123 5.0 11.0 0.00 0.00 0.00 44 1013.6
20260831231037 98 114 3.0 10.0 0.00 0.00 0.00 43 1013.6
20260831230536 98 52 4.0 10.0 0.00 0.00 0.00 43 1013.6
20260831230100 99 111 4.0 9.0 0.00 0.00 0.00 42 1013.7
20260831225537 99 140 2.0 9.0 0.00 0.00 0.00 43 1013.7
20260831225037 99 140 4.0 9.0 0.00 0.00 0.00 43 1013.6
20260831224600 99 140 3.0 10.0 0.00 0.00 0.00 43 1013.7
20260831224037 99 98 4.0 10.0 0.00 0.00 0.00 42 1013.7
20260831223538 99 167 5.0 10.0 0.00 0.00 0.00 42 1013.8
20260831223053 99 110 4.0 11.0 0.00 0.00 0.00 43 1013.7
20260831222537 99 146 2.0 11.0 0.00 0.00 0.00 43 1013.8
20260831222037 99 117 3.0 8.0 0.00 0.00 0.00 44 1013.8
20260831221609 98 86 4.0 8.0 0.00 0.00 0.00 44 1013.8
20260831221036 97 125 1.0 5.0 0.00 0.00 0.00 44 1013.7
20260831220536 97 106 0.0 7.0 0.00 0.00 0.00 45 1013.8
20260831220103 97 26 3.0 9.0 0.00 0.00 0.00 45 1013.8
20260831215536 98 49 3.0 9.0 0.00 0.00 0.00 44 1013.9
20260831215036 99 153 4.0 10.0 0.00 0.00 0.00 44 1013.9
20260831214556 99 58 5.0 10.0 0.00 0.00 0.00 43 1013.9
20260831214037 99 38 4.0 10.0 0.00 0.00 0.00 43 1014.1
20260831213539 99 78 3.0 9.0 0.00 0.00 0.00 42 1014.1
20260831213101 99 132 4.0 9.0 0.00 0.00 0.00 43 1014.2
20260831212537 98 117 3.0 10.0 0.00 0.00 0.00 45 1014.1
20260831212037 98 88 5.0 10.0 0.00 0.00 0.00 45 1014.2
20260831211559 97 42 3.0 12.0 0.00 0.00 0.00 45 1014.2
20260831211038 98 151 7.0 12.0 0.00 0.00 0.00 45 1014.3
20260831210536 98 205 4.0 11.0 0.00 0.00 0.00 45 1014.3
20260831210056 99 82 5.0 11.0 0.00 0.00 0.00 44 1014.4
20260831205537 99 119 3.0 9.0 0.00 0.00 0.00 45 1014.5
20260831205041 98 109 2.0 12.0 0.00 0.00 0.00 45 1014.6
20260831204552 98 84 3.0 12.0 0.00 0.00 0.00 45 1014.7
20260831204037 99 144 3.0 10.0 0.00 0.00 0.00 44 1014.8
20260831203537 99 145 4.0 11.0 0.00 0.00 0.00 45 1014.8
20260831203106 98 94 4.0 16.0 0.00 0.00 0.00 45 1014.8
20260831202536 98 91 4.0 16.0 0.00 0.00 0.00 45 1014.9
20260831202039 98 60 6.0 12.0 0.00 0.00 0.00 46 1015.1
20260831201601 98 29 6.0 11.0 0.00 0.00 0.00 46 1015.2
20260831201041 98 170 4.0 11.0 0.00 0.00 0.00 46 1015.2
20260831200536 97 160 2.0 10.0 0.00 0.00 0.00 47 1015.3
20260831200101 96 150 3.0 11.0 0.00 0.00 0.00 47 1015.4
20260831195538 97 45 4.0 15.0 0.00 0.00 0.00 46 1015.4
20260831195040 97 27 6.0 15.0 0.00 0.00 0.00 46 1015.4
20260831194639 97 24 4.0 11.0 0.00 0.00 0.00 46 1015.5
20260831194038 97 88 4.0 11.0 0.00 0.00 0.00 47 1015.6
20260831193538 97 84 5.0 10.0 0.00 0.00 0.00 47 1015.7
20260831193054 97 105 3.0 12.0 0.00 0.00 0.00 47 1015.9
20260831192537 96 59 3.0 12.0 0.00 0.00 0.00 47 1015.9
20260831192036 97 146 5.0 13.0 0.00 0.00 0.00 47 1016.0
20260831191606 97 139 5.0 13.0 0.00 0.00 0.00 47 1016.0
20260831191036 97 94 6.0 11.0 0.00 0.00 0.00 48 1016.0
20260831190537 96 286 2.0 11.0 0.00 0.00 0.00 47 1016.0
20260831190122 96 119 3.0 11.0 0.00 0.00 0.00 47 1016.3
20260831185536 96 106 5.0 11.0 0.00 0.00 0.00 47 1016.4
20260831185036 96 108 6.0 10.0 0.00 0.00 0.00 48 1016.5
20260831184614 96 32 6.0 10.0 0.00 0.00 0.00 49 1016.7
20260831184037 96 155 2.0 9.0 0.00 0.00 0.00 48 1016.6
20260831183537 95 125 2.0 14.0 0.00 0.00 0.00 49 1016.6
20260831183106 96 140 3.0 14.0 0.00 0.00 0.00 49 1016.7
20260831182538 97 133 8.0 14.0 0.00 0.00 0.00 48 1016.8
20260831182037 96 24 1.0 13.0 0.00 0.00 0.00 50 1016.8
20260831181602 95 165 5.0 13.0 0.00 0.00 0.00 50 1017.0
20260831181037 95 69 3.0 10.0 0.00 0.00 0.00 50 1017.0
20260831180536 95 159 3.0 10.0 0.00 0.00 0.00 51 1017.0
20260831175537 95 144 5.0 10.0 0.00 0.00 0.00 50 1017.2
20260831175037 95 142 2.0 12.0 0.00 0.00 0.00 51 1017.3
20260831174616 95 152 4.0 12.0 0.00 0.00 0.00 51 1017.4
20260831174040 94 159 5.0 12.0 0.00 0.00 0.00 54 1017.3
20260831173537 93 117 2.0 6.0 0.00 0.00 0.00 56 1017.4
20260831173059 93 51 2.0 10.0 0.00 0.00 0.00 55 1017.4
20260831172536 93 150 4.0 10.0 0.00 0.00 0.00 54 1017.5
20260831172038 93 76 6.0 10.0 0.00 0.00 0.00 55 1017.5
20260831171601 93 5 2.0 9.0 0.00 0.00 0.00 56 1017.6
20260831171038 92 0 3.0 9.0 0.00 0.00 0.00 58 1017.6
20260831170537 92 100 3.0 10.0 0.00 0.00 0.00 57 1017.7
20260831170100 92 117 3.0 10.0 0.00 0.00 0.00 57 1017.8
20260831165537 92 128 4.0 11.0 0.00 0.00 0.00 57 1017.9
20260831165036 93 146 6.0 11.0 0.00 0.00 0.00 57 1017.9
20260831164557 92 153 2.0 6.0 0.00 0.00 0.00 57 1017.9
20260831164036 92 112 1.0 6.0 0.00 0.00 0.00 57 1017.9
20260831163538 92 176 2.0 7.0 0.00 0.00 0.00 59 1018.0
20260831163106 92 352 1.0 8.0 0.00 0.00 0.00 59 1018.0
20260831162537 91 165 2.0 9.0 0.00 0.00 0.00 60 1018.0
20260831162037 91 172 5.0 9.0 0.00 0.00 0.00 60 1018.0
20260831161605 90 13 1.0 7.0 0.00 0.00 0.00 61 1018.0
20260831161037 90 138 1.0 7.0 0.00 0.00 0.00 62 1018.0
20260831160537 90 46 4.0 7.0 0.00 0.00 0.00 63 1018.0
20260831160057 89 148 2.0 6.0 0.00 0.00 0.00 63 1018.1
20260831155537 89 34 2.0 6.0 0.00 0.00 0.00 66 1018.1
20260831155037 89 77 3.0 6.0 0.00 0.00 0.00 66 1018.1
20260831154624 89 190 2.0 6.0 0.00 0.00 0.00 68 1018.0
20260831154037 89 258 2.0 6.0 0.00 0.00 0.00 67 1018.0
20260831153539 88 212 1.0 6.0 0.00 0.00 0.00 69 1017.9
20260831153115 87 272 2.0 5.0 0.00 0.00 0.00 70 1017.9
20260831152536 87 246 1.0 4.0 0.00 0.00 0.00 71 1017.9
20260831152036 86 289 0.0 7.0 0.00 0.00 0.00 74 1017.9
20260831151611 86 289 2.0 8.0 0.00 0.00 0.00 74 1017.8
20260831151038 86 287 3.0 8.0 0.00 0.00 0.00 75 1017.8
20260831150537 86 288 4.0 8.0 0.00 0.00 0.00 75 1017.9
20260831145539 85 0 1.0 7.0 0.00 0.00 0.00 79 1017.9
20260831145038 85 286 2.0 7.0 0.00 0.00 0.00 80 1017.9
20260831144558 84 63 0.0 4.0 0.00 0.00 0.00 81 1017.9
20260831144038 84 0 0.0 6.0 0.00 0.00 0.00 82 1017.8
20260831143538 83 255 3.0 6.0 0.00 0.00 0.00 82 1017.8
20260831143058 83 298 2.0 6.0 0.00 0.00 0.00 83 1017.7
20260831142537 83 273 1.0 6.0 0.00 0.00 0.00 84 1017.7
20260831142036 82 344 1.0 6.0 0.00 0.00 0.00 85 1017.7
20260831141605 82 0 1.0 4.0 0.00 0.00 0.00 85 1017.7
20260831141037 81 275 1.0 6.0 0.00 0.00 0.00 86 1017.8
20260831140539 81 275 3.0 6.0 0.00 0.00 0.00 85 1017.7
20260831140059 82 257 0.0 0.0 0.00 0.00 0.00 86 1017.7
20260831135537 81 0 0.0 0.0 0.00 0.00 0.00 86 1017.8
20260831135038 81 0 0.0 0.0 0.00 0.00 0.00 87 1017.6
20260831134601 80 0 0.0 0.0 0.00 0.00 0.00 87 1017.6
20260831134036 79 0 0.0 0.0 0.00 0.00 0.00 88 1017.5
20260831133536 79 0 0.0 0.0 0.00 0.00 0.00 89 1017.6
20260831133106 78 0 0.0 0.0 0.00 0.00 0.00 89 1017.6
20260831132537 78 0 0.0 3.0 0.00 0.00 0.00 90 1017.6
20260831132037 77 0 0.0 3.0 0.00 0.00 0.00 90 1017.5
20260831131601 76 0 1.0 3.0 0.00 0.00 0.00 91 1017.6
20260831131037 76 0 1.0 3.0 0.00 0.00 0.00 91 1017.5
20260831130537 75 89 1.0 3.0 0.00 0.00 0.00 92 1017.6
20260831130107 75 89 0.0 3.0 0.00 0.00 0.00 92 1017.5
20260831125537 74 0 1.0 3.0 0.00 0.00 0.00 92 1017.4
20260831125037 74 89 1.0 3.0 0.00 0.00 0.00 92 1017.4
20260831124553 73 88 1.0 3.0 0.00 0.00 0.00 92 1017.3
20260831124038 73 0 0.0 2.0 0.00 0.00 0.00 92 1017.3
20260831123536 72 0 0.0 0.0 0.00 0.00 0.00 91 1017.2
20260831123102 72 0 0.0 0.0 0.00 0.00 0.00 91 1016.9
20260831122536 72 0 0.0 0.0 0.00 0.00 0.00 90 1016.9
20260831122037 72 0 0.0 0.0 0.00 0.00 0.00 90 1017.0
20260831121628 72 0 0.0 0.0 0.00 0.00 0.00 90 1016.7
20260831121039 72 0 0.0 0.0 0.00 0.00 0.00 90 1016.8
20260831120537 72 0 0.0 0.0 0.00 0.00 0.00 90 1016.7
20260831120054 72 0 0.0 0.0 0.00 0.00 0.00 90 1016.6
20260831115536 72 0 0.0 0.0 0.00 0.00 0.00 90 1016.6
20260831115037 72 0 0.0 0.0 0.00 0.00 0.00 89 1016.5
20260831114604 72 0 0.0 0.0 0.00 0.00 0.00 89 1016.6
20260831114037 72 0 0.0 0.0 0.00 0.00 0.00 89 1016.4
20260831113537 73 0 0.0 0.0 0.00 0.00 0.00 89 1016.5
20260831113109 73 0 0.0 0.0 0.00 0.00 0.00 89 1016.5
20260831112539 73 0 0.0 0.0 0.00 0.00 0.00 89 1016.4
20260831112037 73 0 0.0 0.0 0.00 0.00 0.00 89 1016.4
20260831111559 73 0 0.0 0.0 0.00 0.00 0.00 89 1016.4
20260831111038 74 0 0.0 0.0 0.00 0.00 0.00 89 1016.4
20260831110537 74 0 0.0 0.0 0.00 0.00 0.00 89 1016.2
20260831110055 74 0 0.0 0.0 0.00 0.00 0.00 88 1016.2
20260831105538 74 0 0.0 0.0 0.00 0.00 0.00 87 1016.2
20260831105036 74 0 0.0 0.0 0.00 0.00 0.00 88 1016.2
20260831104607 74 0 0.0 0.0 0.00 0.00 0.00 87 1016.2
20260831104036 74 0 0.0 0.0 0.00 0.00 0.00 86 1016.3
20260831103537 74 0 0.0 0.0 0.00 0.00 0.00 87 1016.3
20260831103109 75 0 0.0 0.0 0.00 0.00 0.00 87 1016.2
20260831102538 75 0 0.0 0.0 0.00 0.00 0.00 88 1016.4
20260831102036 75 0 0.0 0.0 0.00 0.00 0.00 87 1016.4
20260831101603 75 0 0.0 0.0 0.00 0.00 0.00 87 1016.3
20260831101036 75 0 0.0 0.0 0.00 0.00 0.00 87 1016.2
20260831100537 76 0 0.0 0.0 0.00 0.00 0.00 87 1016.1
20260831095539 76 0 0.0 0.0 0.00 0.00 0.00 87 1016.1
20260831095037 76 0 0.0 0.0 0.00 0.00 0.00 87 1016.1
20260831094607 76 0 0.0 1.0 0.00 0.00 0.00 87 1016.1
20260831094037 76 0 0.0 1.0 0.00 0.00 0.00 87 1016.1
20260831093537 76 0 0.0 0.0 0.00 0.00 0.00 86 1016.1
20260831093152 76 0 0.0 0.0 0.00 0.00 0.00 86 1016.0
20260831092539 77 0 0.0 0.0 0.00 0.00 0.00 86 1016.1
20260831092037 77 0 0.0 1.0 0.00 0.00 0.00 85 1016.0
20260831091558 77 0 0.0 1.0 0.00 0.00 0.00 85 1016.0
20260831091037 77 190 0.0 1.0 0.00 0.00 0.00 85 1016.0
20260831090537 77 0 0.0 1.0 0.00 0.00 0.00 85 1016.0
20260831090055 77 0 0.0 1.0 0.00 0.00 0.00 84 1015.9
20260831085537 77 0 0.0 1.0 0.00 0.00 0.00 84 1015.9
20260831085037 78 0 0.0 1.0 0.00 0.00 0.00 83 1015.9
20260831084639 78 0 0.0 0.0 0.00 0.00 0.00 83 1015.8
20260831084036 78 0 0.0 0.0 0.00 0.00 0.00 83 1015.9
20260831083536 78 0 0.0 1.0 0.00 0.00 0.00 83 1015.9
20260831083108 78 0 0.0 1.0 0.00 0.00 0.00 82 1016.0
20260831082537 78 0 0.0 1.0 0.00 0.00 0.00 82 1016.0
20260831082039 78 0 0.0 4.0 0.00 0.00 0.00 82 1016.0
20260831081555 79 0 0.0 5.0 0.00 0.00 0.00 82 1016.0
20260831081038 79 0 0.0 6.0 0.00 0.00 0.00 82 1016.0
20260831080537 79 177 2.0 6.0 0.00 0.00 0.00 82 1015.9
20260831080123 79 0 1.0 4.0 0.00 0.00 0.00 81 1016.0
20260831075539 79 161 1.0 4.0 0.00 0.00 0.00 81 1016.1
20260831075037 79 0 0.0 5.0 0.00 0.00 0.00 81 1016.1
20260831074605 79 161 2.0 5.0 0.00 0.00 0.00 80 1016.0
20260831074036 79 154 0.0 5.0 0.00 0.00 0.00 80 1016.0
20260831073539 79 172 1.0 5.0 0.00 0.00 0.00 80 1016.0
20260831073101 79 0 1.0 5.0 0.00 0.00 0.00 79 1016.0
20260831072536 79 161 0.0 4.0 0.00 0.00 0.00 79 1016.0
20260831072039 79 0 0.0 2.0 0.00 0.00 0.00 78 1016.1
20260831071612 80 0 0.0 2.0 0.00 0.00 0.00 78 1016.2
20260831071038 80 0 0.0 1.0 0.00 0.00 0.00 78 1016.2
20260831070537 80 0 0.0 1.0 0.00 0.00 0.00 77 1016.2
20260831070112 80 0 0.0 1.0 0.00 0.00 0.00 77 1016.2
20260831065538 80 0 0.0 2.0 0.00 0.00 0.00 77 1016.3
20260831065040 80 0 0.0 2.0 0.00 0.00 0.00 77 1016.3
20260831064600 80 0 0.0 1.0 0.00 0.00 0.00 76 1016.3
20260831064036 80 0 0.0 1.0 0.00 0.00 0.00 76 1016.4
20260831063537 80 0 0.0 1.0 0.00 0.00 0.00 75 1016.4
20260831063112 80 0 0.0 1.0 0.00 0.00 0.00 75 1016.4
20260831062539 80 0 0.0 2.0 0.00 0.00 0.00 74 1016.4
20260831062039 80 0 0.0 2.0 0.00 0.00 0.00 74 1016.3
20260831061603 81 0 0.0 1.0 0.00 0.00 0.00 73 1016.3
20260831061039 81 0 0.0 1.0 0.00 0.00 0.00 73 1016.2
20260831060536 81 161 0.0 1.0 0.00 0.00 0.00 72 1016.2
20260831060118 81 161 0.0 4.0 0.00 0.00 0.00 72 1016.2
20260831055536 81 0 0.0 4.0 0.00 0.00 0.00 72 1016.1
20260831055037 81 161 0.0 2.0 0.00 0.00 0.00 72 1016.2
20260831054600 81 0 0.0 2.0 0.00 0.00 0.00 71 1016.1
20260831054040 82 161 0.0 5.0 0.00 0.00 0.00 70 1016.1
20260831053538 82 0 0.0 5.0 0.00 0.00 0.00 70 1016.2
20260831053106 82 0 1.0 5.0 0.00 0.00 0.00 69 1016.1
20260831052539 82 161 0.0 4.0 0.00 0.00 0.00 69 1016.1
20260831052040 82 161 0.0 2.0 0.00 0.00 0.00 69 1016.0
20260831051602 82 161 0.0 4.0 0.00 0.00 0.00 68 1015.9
20260831051036 82 0 0.0 4.0 0.00 0.00 0.00 68 1015.8
20260831050539 82 161 0.0 2.0 0.00 0.00 0.00 67 1015.8
20260831050112 83 0 0.0 0.0 0.00 0.00 0.00 67 1015.7
20260831045536 83 0 0.0 0.0 0.00 0.00 0.00 66 1015.7
20260831045038 83 0 0.0 3.0 0.00 0.00 0.00 66 1015.7
20260831044558 83 0 0.0 4.0 0.00 0.00 0.00 66 1015.7
20260831044039 83 161 0.0 4.0 0.00 0.00 0.00 66 1015.7
20260831043540 83 161 1.0 5.0 0.00 0.00 0.00 65 1015.7
20260831043104 83 161 2.0 7.0 0.00 0.00 0.00 65 1015.6
20260831042547 83 161 1.0 7.0 0.00 0.00 0.00 66 1015.6
20260831042036 83 0 1.0 5.0 0.00 0.00 0.00 66 1015.5
20260831041553 84 183 1.0 3.0 0.00 0.00 0.00 66 1015.5
20260831041036 84 0 0.0 4.0 0.00 0.00 0.00 65 1015.5